Location: Ladysmith
(45.4630°N, 91.1040°W)
Time: 08:29:17
(UTC-05:00)

Amateur Radio Satellites - All Passes

Search period start: 06 May 2015 07:59
Search period end: 07 May 2015 07:59
Location: Ladysmith, 45.4630°N, 91.1040°W

Satellite Date Start Highest point End Downlink Frequencies (MHz)
Time Altitude Azimuth
SO-50 06 May 08:01:13 08:02:38 11° 108° (ESE) 08:04:20 436.795
HO-68 06 May 08:03:34 08:04:19 10° 81° (E) 08:05:40 435.675
CUTE-I 06 May 08:03:48 08:09:03 59° 289° (WNW) 08:14:17 437.470
M-CUBED/EXP-1 PRIME 06 May 08:11:43 08:13:15 11° 268° (W) 08:14:28 437.505
YUBILEINY 06 May 08:15:07 08:18:44 14° 74° (ENE) 08:22:57 435.215
PRISM 06 May 08:15:15 08:17:36 14° 270° (W) 08:19:48 437.425
Cubesat XI-IV 06 May 08:17:13 08:22:19 45° 291° (WNW) 08:27:22 437.490
PCSat 06 May 08:18:49 08:23:06 23° 321° (NW) 08:27:18 145.827
BEESAT 3 06 May 08:33:33 08:37:37 59° 51° (NE) 08:41:38 437.485
BRITE-PL 06 May 08:46:23 08:51:30 41° 96° (E) 08:56:51 437.365/2234.400
SEEDS 06 May 08:50:23 08:52:15 13° 87° (E) 08:54:18 437.485
BEESAT 2 06 May 08:50:31 08:54:40 72° 52° (NE) 08:58:44 435.950
DOVE 4 06 May 08:51:10 08:55:03 21° 89° (E) 08:59:06 437.250
ISS 06 May 08:51:50 08:55:03 72° 149° (SSE) 08:58:19 145.825
Cosmos 2491 06 May 09:02:23 09:11:15 71° 78° (ENE) 09:20:04 435.465 / 435.565
GOMX 1 06 May 09:11:12 09:16:22 45° 97° (E) 09:21:39 467.674
CANX-2 06 May 09:17:40 09:21:32 33° 96° (E) 09:25:23 2200.000
CUTE 1.7 + AOD 2 06 May 09:24:53 09:28:49 36° 96° (E) 09:32:45 437.475
AIST 2 06 May 09:27:01 09:31:13 55° 50° (NE) 09:35:20 435.215
ANTELSAT 06 May 09:28:38 09:31:30 17° 62° (ENE) 09:34:31 437.575/2403.000
SO-50 06 May 09:37:46 09:42:27 85° 128° (SE) 09:47:21 436.795
COMPASS 1 06 May 09:40:01 09:43:52 35° 96° (E) 09:47:43 437.405
AIST 1 06 May 09:40:31 09:43:10 16° 67° (ENE) 09:45:57
Oscar 11 06 May 09:41:37 09:44:12 16° 89° (E) 09:46:57 145.826/435.025
CINEMA 3 06 May 09:44:38 09:49:08 32° 94° (E) 09:53:38 145.822/145.860
HO-68 06 May 09:46:38 09:53:45 62° 102° (ESE) 10:00:51 435.675
DUCHIFAT 1 06 May 09:57:20 09:59:20 14° 62° (ENE) 10:01:31 145.980
CUBEBUG 2 06 May 10:00:54 10:04:44 24° 92° (E) 10:08:36 437.445
UWE-3 06 May 10:01:59 10:05:24 20° 90° (E) 10:08:52 435.000/436.395/437.385
YUBILEINY 06 May 10:05:22 10:14:03 68° 94° (E) 10:22:47 435.215
DELFI C3 06 May 10:05:42 10:08:40 20° 92° (E) 10:11:42 145.870
ZACube-1 06 May 10:09:55 10:13:09 19° 90° (E) 10:16:27 437.345
POLYITAN 1 06 May 10:10:19 10:13:17 19° 64° (ENE) 10:16:21 437.675
TIGRISAT 06 May 10:11:11 10:15:28 38° 69° (ENE) 10:19:51 435.000
AAUSAT CUBESAT 2 06 May 10:12:15 10:16:25 69° 101° (E) 10:20:33 437.432
BEESAT 3 06 May 10:12:42 10:15:13 16° 248° (WSW) 10:17:34 437.485
UNISAT 6 06 May 10:20:47 10:25:16 48° 71° (ENE) 10:29:50 437.425
QB50P1 06 May 10:21:21 10:24:42 23° 66° (ENE) 10:28:07 145.935-145.965
SEEDS 06 May 10:24:22 10:28:33 62° 286° (WNW) 10:32:41 437.485
BRITE-PL 06 May 10:25:06 10:29:55 33° 292° (WNW) 10:34:51 437.365/2234.400
DOVE 4 06 May 10:27:59 10:33:11 58° 288° (WNW) 10:38:24 437.250
ISS 06 May 10:28:38 10:31:36 32° 347° (NNW) 10:34:36 145.825
BEESAT 2 06 May 10:30:19 10:32:15 13° 249° (WSW) 10:34:00 435.950
BUGSAT 1 06 May 10:30:51 10:33:45 20° 65° (ENE) 10:36:46 437.445
DX 1 06 May 10:35:21 10:38:21 18° 91° (E) 10:41:29 434.975-435.025
GOMX 1 06 May 10:49:41 10:54:18 29° 294° (WNW) 10:58:55 467.674
QB50P2 06 May 10:51:03 10:55:07 47° 72° (ENE) 10:59:15 145.880/145.840
CANX-2 06 May 10:53:50 10:57:20 25° 293° (WNW) 11:00:45 2200.000
VELOX 1 06 May 10:54:17 10:56:39 14° 89° (E) 10:59:11 145.980
Cosmos 2504 06 May 10:56:18 11:00:27 15° 76° (ENE) 11:05:03 435.465 / 435.565
Cosmos 2491 06 May 11:00:16 11:07:25 28° 278° (W) 11:14:18 435.465 / 435.565
NANOSAT C BR1 06 May 11:00:26 11:04:34 57° 73° (ENE) 11:08:47 145.865
UKube-1 06 May 11:00:36 11:04:27 30° 96° (E) 11:08:19 .
CUTE 1.7 + AOD 2 06 May 11:01:11 11:04:35 23° 293° (WNW) 11:07:52 437.475
ANTELSAT 06 May 11:03:09 11:07:48 66° 259° (W) 11:12:31 437.575/2403.000
AIST 2 06 May 11:06:33 11:09:26 18° 248° (WSW) 11:12:10 435.215
POPSAT HIP 1 06 May 11:09:12 11:13:25 72° 75° (ENE) 11:17:42 437.405
FUNcube-1 06 May 11:14:46 11:19:23 83° 104° (ESE) 11:23:52 145.935
AISAT 06 May 11:16:01 11:19:41 25° 94° (E) 11:23:24 437.250
COMPASS 1 06 May 11:16:04 11:19:24 23° 293° (WNW) 11:22:38 437.405
Oscar 11 06 May 11:16:32 11:20:46 53° 288° (WNW) 11:24:58 145.826/435.025
AIST 1 06 May 11:17:01 11:21:12 50° 266° (W) 11:25:21
SO-50 06 May 11:20:03 11:23:41 20° 326° (NNW) 11:27:18 436.795
CINEMA 3 06 May 11:21:46 11:26:21 34° 292° (WNW) 11:30:48 145.822/145.860
RS-15 06 May 11:23:53 11:30:58 21° 101° (ESE) 11:38:44 29.354- 29.394
DUCHIFAT 1 06 May 11:30:28 11:34:40 69° 258° (WSW) 11:38:55 145.980
50 SAT 06 May 11:32:47 11:36:31 37° 97° (E) 11:40:14 437.505
HO-68 06 May 11:34:59 11:41:07 31° 301° (WNW) 11:47:05 435.675
CUBEBUG 2 06 May 11:37:06 11:41:36 41° 290° (WNW) 11:45:58 437.445
UWE-3 06 May 11:37:42 11:42:13 47° 289° (WNW) 11:46:38 435.000/436.395/437.385
HUMSAT D 06 May 11:38:45 11:43:05 75° 102° (ESE) 11:47:21 437.325/437.525
DELFI C3 06 May 11:40:14 11:43:57 36° 290° (WNW) 11:47:38 145.870
POLYITAN 1 06 May 11:44:47 11:48:53 46° 261° (W) 11:53:03 437.675
ZACube-1 06 May 11:45:23 11:49:49 48° 288° (WNW) 11:54:09 437.345
TIGRISAT 06 May 11:48:26 11:52:20 26° 267° (W) 11:56:13 435.000
AAUSAT CUBESAT 2 06 May 11:49:33 11:51:33 13° 298° (WNW) 11:53:22 437.432
QB50P1 06 May 11:56:30 12:00:24 35° 263° (W) 12:04:20 145.935-145.965
UNISAT 6 06 May 11:58:50 12:02:20 20° 270° (W) 12:05:46 437.425
CUBEBUG 1 06 May 11:59:28 12:03:28 34° 96° (E) 12:07:30 437.445
YUBILEINY 06 May 12:04:06 12:11:43 30° 297° (WNW) 12:19:07 435.215
BUGSAT 1 06 May 12:05:12 12:09:00 39° 262° (W) 12:12:51 437.445
VERMONT LUNAR 06 May 12:05:32 12:07:36 16° 157° (SSE) 12:09:43 437.305
ISS 06 May 12:05:39 12:08:32 28° 7° (N) 12:11:26 145.825
DX 1 06 May 12:10:41 12:14:54 47° 289° (WNW) 12:19:06 434.975-435.025
Oscar 19 06 May 12:27:52 12:31:47 23° 62° (ENE) 12:35:49 437.125/150
QB50P2 06 May 12:28:25 12:31:20 17° 270° (W) 12:34:07 145.880/145.840
VELOX 1 06 May 12:29:16 12:33:41 62° 287° (WNW) 12:38:06 145.980
SPROUT 06 May 12:33:27 12:36:50 22° 92° (E) 12:40:18 437.525
ESTCUBE 1 06 May 12:36:39 12:41:11 89° 273° (W) 12:45:42 437.505/2401.250
UKube-1 06 May 12:36:47 12:40:32 28° 293° (WNW) 12:44:13 .
NANOSAT C BR1 06 May 12:38:28 12:40:51 14° 271° (W) 12:43:04 145.865
Cosmos 2504 06 May 12:43:53 12:52:39 71° 94° (E) 13:01:04 435.465 / 435.565
POPSAT HIP 1 06 May 12:48:23 12:49:54 11° 273° (W) 12:51:11 437.405
TISAT 1 06 May 12:52:01 12:55:37 26° 94° (E) 12:59:17 437.305
AISAT 06 May 12:52:15 12:56:23 36° 291° (WNW) 13:00:28 437.250
FUNcube-1 06 May 12:52:57 12:55:06 13° 300° (WNW) 12:57:02 145.935
PHONESAT 2.4 06 May 13:00:46 13:02:55 15° 155° (SSE) 13:05:07 2401.200-2431.200
50 SAT 06 May 13:08:05 13:11:06 20° 294° (WNW) 13:13:59 437.505
HUMSAT D 06 May 13:16:15 13:18:18 13° 299° (WNW) 13:20:10 437.325/437.525
ITAMSAT 1 06 May 13:29:07 13:33:16 26° 64° (ENE) 13:37:31 435.822/435.867
Gurwin Techsat 1B 06 May 13:30:18 13:34:24 24° 63° (ENE) 13:38:38 435.225
RS-15 06 May 13:30:52 13:41:45 82° 122° (ESE) 13:52:58 29.354- 29.394
CUBEBUG 1 06 May 13:36:02 13:39:44 26° 293° (WNW) 13:43:21 437.445
PCSat 06 May 13:36:41 13:40:45 21° 38° (NE) 13:44:55 145.827
VERMONT LUNAR 06 May 13:41:28 13:44:28 32° 173° (S) 13:47:30 437.305
ISS 06 May 13:41:59 13:45:14 73° 27° (NNE) 13:48:30 145.825
ITUPSAT 1 06 May 13:53:06 13:56:32 20° 91° (E) 14:00:04 437.325
Oscar 19 06 May 14:05:43 14:10:47 55° 260° (W) 14:15:55 437.125/150
SPROUT 06 May 14:09:02 14:13:04 37° 290° (WNW) 14:17:04 437.525
BEESAT 06 May 14:15:26 14:19:42 33° 96° (E) 14:24:01 436.000
ESTCUBE 1 06 May 14:15:50 14:17:25 11° 301° (WNW) 14:18:48 437.505/2401.250
SWISSCUBE 06 May 14:19:56 14:24:23 39° 97° (E) 14:28:51 437.505
JAS-2 06 May 14:27:33 14:32:48 22° 59° (ENE) 14:37:56 435.910
TISAT 1 06 May 14:27:38 14:31:26 31° 292° (WNW) 14:35:11 437.305
GONETS M04 06 May 14:32:34 14:39:07 25° 81° (E) 14:46:00
AO-7 06 May 14:33:10 14:39:58 31° 54° (NE) 14:46:58 29.400- 29.500
PHONESAT 2.4 06 May 14:37:21 14:40:34 33° 171° (S) 14:43:49 2401.200-2431.200
Cosmos 2504 06 May 14:39:23 14:46:53 29° 296° (WNW) 14:53:54 435.465 / 435.565
ITAMSAT 1 06 May 15:07:34 15:12:33 47° 261° (W) 15:17:32 435.822/435.867
Gurwin Techsat 1B 06 May 15:08:54 15:14:05 53° 260° (W) 15:19:18 435.225
VERMONT LUNAR 06 May 15:18:31 15:21:29 30° 190° (S) 15:24:28 437.305
ISS 06 May 15:18:57 15:21:17 18° 224° (SW) 15:23:33 145.825
PCSat 06 May 15:19:27 15:24:54 84° 242° (WSW) 15:30:20 145.827
CUSAT 1 06 May 15:22:47 15:26:56 27° 84° (E) 15:32:14 437.405
ITUPSAT 1 06 May 15:30:08 15:34:45 50° 289° (WNW) 15:39:20 437.325
HORYU 2 06 May 15:31:55 15:36:20 58° 72° (ENE) 15:40:47 437.375
DANDE 06 May 15:40:35 15:44:30 27° 84° (E) 15:49:33 436.750
KKS-1 06 May 15:44:02 15:48:25 49° 99° (E) 15:52:47 437.445
RS-15 06 May 15:45:16 15:55:27 40° 331° (NNW) 16:05:55 29.354- 29.394
BEESAT 06 May 15:53:21 15:57:32 31° 293° (WNW) 16:01:39 436.000
SWISSCUBE 06 May 15:58:08 16:02:06 26° 295° (WNW) 16:05:59 437.505
STARS 06 May 16:08:51 16:13:16 56° 100° (E) 16:17:39 437.465
JAS-2 06 May 16:09:28 16:17:12 90° 253° (WSW) 16:24:17 435.910
PHONESAT 2.4 06 May 16:15:09 16:18:23 33° 188° (S) 16:21:39 2401.200-2431.200
AO-7 06 May 16:23:55 16:32:12 73° 255° (WSW) 16:40:32 29.400- 29.500
GONETS M04 06 May 16:26:19 16:35:09 77° 281° (W) 16:44:03
SO-50 06 May 16:27:12 16:31:23 26° 38° (NE) 16:35:35 436.795
Cosmos 2499 06 May 16:29:30 16:35:57 25° 83° (E) 16:42:27 435.465 / 435.565
VERMONT LUNAR 06 May 16:56:37 16:58:19 13° 205° (SSW) 16:59:58 437.305
CUSAT 1 06 May 17:04:17 17:09:11 47° 291° (WNW) 17:15:37 437.405
PCSat 06 May 17:05:11 17:07:36 13° 256° (WSW) 17:09:42 145.827
HORYU 2 06 May 17:10:34 17:13:25 16° 271° (W) 17:16:05 437.375
KKS-1 06 May 17:21:26 17:24:45 20° 296° (WNW) 17:27:56 437.445
DANDE 06 May 17:22:50 17:27:23 41° 292° (WNW) 17:33:23 436.750
MOZHAYETS 4 06 May 17:39:14 17:43:46 61° 100° (E) 17:48:16
STARS 06 May 17:46:20 17:49:19 17° 297° (WNW) 17:52:11 437.465
CUTE-I 06 May 17:48:27 17:53:21 41° 68° (ENE) 17:58:20 437.470
PHONESAT 2.4 06 May 17:53:47 17:56:03 16° 204° (SSW) 17:58:17 2401.200-2431.200
JAS-2 06 May 17:57:46 18:03:05 19° 273° (W) 18:07:50 435.910
Cubesat XI-IV 06 May 18:01:37 18:06:45 53° 70° (ENE) 18:11:57 437.490
RS-15 06 May 18:02:32 18:11:50 29° 4° (N) 18:21:31 29.354- 29.394
SO-50 06 May 18:07:24 18:12:19 61° 239° (WSW) 18:17:09 436.795
CUBESAT XI-V 06 May 18:15:00 18:16:57 13° 86° (E) 18:19:08 437.345
Cosmos 2499 06 May 18:19:42 18:28:28 77° 280° (W) 18:36:44 435.465 / 435.565
AO-7 06 May 18:22:04 18:26:41 15° 276° (W) 18:30:46 29.400- 29.500
GONETS M04 06 May 18:27:55 18:33:53 19° 306° (NW) 18:39:29
HO-68 06 May 18:34:34 18:37:42 14° 47° (NE) 18:41:12 435.675
MOZHAYETS 4 06 May 19:17:37 19:20:35 17° 297° (WNW) 19:23:24
CUTE-I 06 May 19:28:58 19:33:35 29° 266° (W) 19:38:09 437.470
Cubesat XI-IV 06 May 19:43:04 19:47:14 22° 269° (W) 19:51:17 437.490
SEEDS 06 May 19:45:02 19:47:08 14° 62° (ENE) 19:49:24 437.485
M-CUBED/EXP-1 PRIME 06 May 19:48:02 19:51:45 48° 104° (ESE) 19:55:11 437.505
CUBESAT XI-V 06 May 19:50:23 19:55:01 74° 285° (WNW) 19:59:40 437.345
PRISM 06 May 19:53:09 19:57:14 66° 101° (E) 20:01:19 437.425
DOVE 4 06 May 19:59:16 20:02:53 24° 64° (ENE) 20:06:46 437.250
BRITE-PL 06 May 20:00:00 20:04:13 49° 71° (ENE) 20:08:47 437.365/2234.400
STRAND 1 06 May 20:02:25 20:07:30 63° 101° (ESE) 20:12:35 437.568
CANX-2 06 May 20:12:42 20:16:32 33° 69° (ENE) 20:20:25 2200.000
YUBILEINY 06 May 20:13:01 20:20:57 38° 68° (ENE) 20:28:57 435.215
Cosmos 2491 06 May 20:14:31 20:18:56 16° 75° (ENE) 20:23:55 435.465 / 435.565
RS-15 06 May 20:17:00 20:27:53 48° 36° (NE) 20:39:19 29.354- 29.394
HO-68 06 May 20:17:07 20:24:06 58° 67° (ENE) 20:31:09 435.675
Cosmos 2499 06 May 20:17:29 20:23:12 18° 303° (WNW) 20:28:20 435.465 / 435.565
AUBIESAT-1 06 May 20:18:27 20:22:17 83° 289° (WNW) 20:25:47 437.475
CUTE 1.7 + AOD 2 06 May 20:19:49 20:23:43 35° 70° (ENE) 20:27:40 437.475
GOMX 1 06 May 20:21:48 20:26:10 53° 72° (ENE) 20:30:54 467.674
COMPASS 1 06 May 20:33:23 20:37:10 33° 70° (ENE) 20:41:00 437.405
Oscar 11 06 May 20:38:45 20:41:37 18° 64° (ENE) 20:44:36 145.826/435.025
FUNcube-1 06 May 20:39:52 20:41:07 11° 59° (ENE) 20:42:36 145.935
O/OREOS (USA 219) 06 May 20:41:02 20:45:36 86° 114° (ESE) 20:50:10 437.305
CINEMA 3 06 May 20:48:28 20:52:40 36° 68° (ENE) 20:57:06 145.822/145.860
DELFI C3 06 May 20:55:48 20:58:32 18° 65° (ENE) 21:01:23 145.870
CUBEBUG 2 06 May 21:01:15 21:05:04 27° 66° (ENE) 21:09:02 437.445
UWE-3 06 May 21:01:20 21:04:48 22° 65° (ENE) 21:08:27 435.000/436.395/437.385
AAUSAT CUBESAT 2 06 May 21:04:55 21:09:05 62° 74° (ENE) 21:13:16 437.432
ZACube-1 06 May 21:08:08 21:11:28 21° 64° (ENE) 21:14:56 437.345
SEEDS 06 May 21:18:12 21:22:28 68° 259° (W) 21:26:44 437.485
M-CUBED/EXP-1 PRIME 06 May 21:23:52 21:26:15 15° 304° (WNW) 21:28:24 437.505
PRISM 06 May 21:30:11 21:32:15 13° 298° (WNW) 21:34:09 437.425
DX 1 06 May 21:33:12 21:36:30 22° 65° (ENE) 21:39:53 434.975-435.025
DOVE 4 06 May 21:36:03 21:40:23 43° 264° (W) 21:45:00 437.250
BRITE-PL 06 May 21:40:07 21:43:12 18° 272° (W) 21:46:18 437.365/2234.400
STRAND 1 06 May 21:42:38 21:46:17 20° 299° (WNW) 21:49:49 437.568
CANX-2 06 May 21:48:54 21:52:31 25° 267° (W) 21:56:06 2200.000
VELOX 1 06 May 21:54:09 21:57:05 18° 63° (ENE) 22:00:08 145.980
CUTE 1.7 + AOD 2 06 May 21:56:13 21:59:44 23° 267° (W) 22:03:11 437.475
UKube-1 06 May 21:57:33 22:01:28 35° 69° (ENE) 22:05:25 .
GOMX 1 06 May 22:01:42 22:04:48 17° 273° (W) 22:07:53 467.674
ESTCUBE 1 06 May 22:04:16 22:06:27 14° 61° (ENE) 22:08:49 437.505/2401.250
Cosmos 2491 06 May 22:05:44 22:14:26 76° 95° (E) 22:23:14 435.465 / 435.565
HO-68 06 May 22:05:59 22:12:16 31° 267° (W) 22:18:26 435.675
COMPASS 1 06 May 22:09:24 22:12:56 24° 267° (W) 22:16:23 437.405
YUBILEINY 06 May 22:09:45 22:18:10 54° 270° (W) 22:26:28 435.215
FUNcube-1 06 May 22:12:15 22:16:44 84° 77° (ENE) 22:21:21 145.935
Oscar 11 06 May 22:13:11 22:17:27 52° 261° (W) 22:21:44 145.826/435.025
AISAT 06 May 22:16:02 22:19:50 29° 67° (ENE) 22:23:43 437.250
50 SAT 06 May 22:20:03 22:23:36 30° 69° (ENE) 22:27:12 437.505
O/OREOS (USA 219) 06 May 22:23:12 22:25:45 14° 314° (NW) 22:28:08 437.305
CINEMA 3 06 May 22:25:59 22:29:58 27° 268° (W) 22:34:03 145.822/145.860
DELFI C3 06 May 22:29:30 22:33:24 44° 262° (W) 22:37:18 145.870
RS-15 06 May 22:29:39 22:41:06 68° 241° (WSW) 22:52:58 29.354- 29.394
HUMSAT D 06 May 22:32:20 22:36:37 69° 75° (ENE) 22:40:57 437.325/437.525
Cosmos 2504 06 May 22:35:15 22:41:37 28° 63° (ENE) 22:47:50 435.465 / 435.565
UWE-3 06 May 22:36:43 22:41:04 44° 262° (W) 22:45:33 435.000/436.395/437.385
CUBEBUG 2 06 May 22:37:21 22:41:36 37° 264° (W) 22:45:58 437.445
AAUSAT CUBESAT 2 06 May 22:43:04 22:45:11 13° 272° (W) 22:47:06 437.432
ZACube-1 06 May 22:43:11 22:47:31 46° 262° (W) 22:51:57 437.345
ANTELSAT 06 May 22:53:46 22:57:25 23° 92° (E) 23:01:05 437.575/2403.000
POPSAT HIP 1 06 May 22:55:17 22:55:44 10° 86° (E) 22:56:26 437.405
CUBEBUG 1 06 May 22:57:47 23:01:44 37° 70° (ENE) 23:05:46 437.445
DX 1 06 May 23:08:27 23:12:33 40° 262° (W) 23:16:39 434.975-435.025
DUCHIFAT 1 06 May 23:14:07 23:16:49 17° 90° (E) 23:19:39 145.980
POLYITAN 1 06 May 23:28:22 23:31:54 24° 93° (E) 23:35:28 437.675
VELOX 1 06 May 23:29:00 23:33:18 52° 260° (W) 23:37:38 145.980
SPROUT 06 May 23:29:58 23:33:20 24° 66° (ENE) 23:36:49 437.525
UKube-1 06 May 23:34:10 23:37:43 24° 266° (W) 23:41:12 .
TIGRISAT 06 May 23:37:07 23:41:44 60° 100° (E) 23:46:14 435.000
ESTCUBE 1 06 May 23:38:18 23:42:48 75° 258° (WSW) 23:47:19 437.505/2401.250
QB50P1 06 May 23:39:17 23:43:06 31° 95° (E) 23:46:57 145.935-145.965
BUGSAT 1 06 May 23:45:15 23:48:43 25° 94° (E) 23:52:15 437.445
TISAT 1 06 May 23:46:30 23:50:00 27° 67° (ENE) 23:53:36 437.305
UNISAT 6 06 May 23:47:12 23:51:53 78° 102° (ESE) 23:56:25 437.425
AIST 1 06 May 23:48:22 23:52:38 84° 97° (E) 23:56:55
AISAT 06 May 23:52:31 23:56:24 30° 265° (W) 00:00:17 437.250
FUNcube-1 06 May 23:52:35 23:53:49 11° 275° (W) 23:54:47 145.935
50 SAT 06 May 23:55:04 23:58:25 24° 266° (W) 00:01:43 437.505
Cosmos 2491 07 May 00:05:04 00:12:21 27° 299° (WNW) 00:19:28 435.465 / 435.565
BEESAT 3 07 May 00:05:58 00:09:57 54° 121° (ESE) 00:13:59 437.485
QB50P2 07 May 00:09:46 00:14:04 67° 101° (ESE) 00:18:21 145.880/145.840
HUMSAT D 07 May 00:11:01 00:12:56 12° 273° (W) 00:14:39 437.325/437.525
NANOSAT C BR1 07 May 00:18:47 00:23:06 81° 103° (ESE) 00:27:24 145.865
BEESAT 2 07 May 00:23:49 00:27:55 68° 123° (ESE) 00:32:04 435.950
POPSAT HIP 1 07 May 00:27:56 00:32:16 82° 287° (WNW) 00:36:35 437.405
Cosmos 2504 07 May 00:28:09 00:35:46 63° 267° (W) 00:42:54 435.465 / 435.565
ANTELSAT 07 May 00:30:01 00:34:24 40° 290° (WNW) 00:38:39 437.575/2403.000
CUBEBUG 1 07 May 00:34:48 00:38:15 22° 267° (W) 00:41:39 437.445
DANDE 07 May 00:37:46 00:38:15 10° 45° (NE) 00:39:20 436.750
GONETS M04 07 May 00:39:14 00:43:27 14° 50° (NE) 00:48:11
RS-15 07 May 00:44:50 00:51:43 17° 261° (W) 00:57:51 29.354- 29.394
DUCHIFAT 1 07 May 00:48:47 00:52:59 50° 288° (WNW) 00:57:08 145.980
ITUPSAT 1 07 May 01:01:54 01:06:01 30° 67° (ENE) 01:10:12 437.325
POLYITAN 1 07 May 01:03:57 01:07:54 34° 291° (WNW) 01:11:48 437.675
AIST 2 07 May 01:04:57 01:09:08 57° 121° (ESE) 01:13:22 435.215
SPROUT 07 May 01:05:18 01:09:17 36° 264° (W) 01:13:16 437.525
TIGRISAT 07 May 01:14:55 01:18:02 18° 298° (WNW) 01:20:59 435.000
QB50P1 07 May 01:15:14 01:18:55 27° 292° (WNW) 01:22:31 145.935-145.965
BUGSAT 1 07 May 01:20:26 01:24:15 33° 291° (WNW) 01:28:02 437.445
TISAT 1 07 May 01:22:00 01:25:43 30° 265° (W) 01:29:27 437.305
BEESAT 07 May 01:23:55 01:28:30 48° 71° (ENE) 01:33:07 436.000
UNISAT 6 07 May 01:25:35 01:28:04 14° 300° (WNW) 01:30:21 437.425
SWISSCUBE 07 May 01:28:31 01:33:11 58° 72° (ENE) 01:37:54 437.505
AIST 1 07 May 01:30:44 01:31:02 10° 298° (WNW) 01:31:07
BEESAT 3 07 May 01:45:00 01:48:15 22° 321° (NW) 01:51:29 437.485
QB50P2 07 May 01:47:06 01:49:30 14° 298° (WNW) 01:51:45 145.880/145.840
CUSAT 1 07 May 01:55:51 02:03:16 37° 66° (ENE) 02:10:44 437.405
NANOSAT C BR1 07 May 01:56:35 01:58:23 12° 299° (WNW) 02:00:00 145.865
BEESAT 2 07 May 02:03:25 02:06:28 19° 323° (NW) 02:09:28 435.950
Oscar 19 07 May 02:14:59 02:19:58 45° 98° (E) 02:24:56 437.125/150
DANDE 07 May 02:16:22 02:24:03 41° 68° (ENE) 02:32:00 436.750
Cosmos 2504 07 May 02:26:12 02:27:35 10° 287° (WNW) 02:28:24 435.465 / 435.565
GONETS M04 07 May 02:33:57 02:42:44 62° 76° (ENE) 02:51:26
ITUPSAT 1 07 May 02:39:31 02:43:52 34° 264° (W) 02:48:12 437.325
KKS-1 07 May 02:44:10 02:48:32 58° 73° (ENE) 02:52:57 437.445
AIST 2 07 May 02:44:38 02:48:04 22° 321° (NW) 02:51:27 435.215
BEESAT 07 May 03:03:02 03:06:39 21° 269° (W) 03:10:10 436.000
STARS 07 May 03:07:42 03:12:04 65° 74° (ENE) 03:16:30 437.465
SWISSCUBE 07 May 03:08:16 03:11:30 17° 270° (W) 03:14:32 437.505
ITAMSAT 1 07 May 03:17:51 03:22:56 52° 100° (E) 03:28:00 435.822/435.867
Gurwin Techsat 1B 07 May 03:22:40 03:27:52 52° 99° (E) 03:33:04 435.225
CUSAT 1 07 May 03:38:20 03:46:29 61° 266° (W) 03:54:17 437.405
Oscar 19 07 May 03:54:47 03:59:08 27° 296° (WNW) 04:03:22 437.125/150
DANDE 07 May 03:59:30 04:07:38 56° 266° (W) 04:15:45 436.750
Cosmos 2499 07 May 04:09:13 04:16:16 43° 71° (ENE) 04:23:00 435.465 / 435.565
KKS-1 07 May 04:22:55 04:25:38 15° 271° (W) 04:28:11 437.445
AO-7 07 May 04:23:15 04:30:35 34° 95° (E) 04:38:04 29.400- 29.500
GONETS M04 07 May 04:31:31 04:39:06 32° 276° (W) 04:46:26
MOZHAYETS 4 07 May 04:43:03 04:47:41 73° 74° (ENE) 04:52:18
STARS 07 May 04:46:46 04:49:04 13° 272° (W) 04:51:10 437.465
HORYU 2 07 May 04:57:26 05:01:57 86° 102° (ESE) 05:06:25 437.375
ITAMSAT 1 07 May 04:58:01 05:02:09 24° 297° (WNW) 05:06:10 435.822/435.867
JAS-2 07 May 05:02:53 05:08:41 66° 101° (E) 05:13:57 435.910
Gurwin Techsat 1B 07 May 05:03:19 05:07:34 24° 297° (WNW) 05:11:42 435.225
M-CUBED/EXP-1 PRIME 07 May 05:05:05 05:07:39 15° 56° (ENE) 05:10:19 437.505
O/OREOS (USA 219) 07 May 05:10:02 05:13:56 29° 55° (NE) 05:17:50 437.305
CUBESAT XI-V 07 May 05:20:29 05:23:24 17° 63° (ENE) 05:26:27 437.345
CUSAT 1 07 May 05:24:03 05:27:49 13° 283° (WNW) 05:31:00 437.405
AUBIESAT-1 07 May 05:33:52 05:37:31 23° 60° (ENE) 05:41:07 437.475
STRAND 1 07 May 05:43:50 05:46:58 17° 60° (ENE) 05:50:16 437.568
DANDE 07 May 05:46:18 05:49:29 12° 284° (WNW) 05:52:04 436.750
Cosmos 2499 07 May 06:02:36 06:09:21 38° 273° (W) 06:15:41 435.465 / 435.565
PCSat 07 May 06:03:03 06:08:20 58° 117° (ESE) 06:13:41 145.827
CUTE-I 07 May 06:04:53 06:07:11 13° 86° (E) 06:09:46 437.470
AO-7 07 May 06:15:42 06:23:53 61° 295° (WNW) 06:32:01 29.400- 29.500
Cubesat XI-IV 07 May 06:17:37 06:21:03 18° 89° (E) 06:24:40 437.490
MOZHAYETS 4 07 May 06:23:17 06:25:31 13° 273° (W) 06:27:30
HORYU 2 07 May 06:36:07 06:37:59 12° 301° (WNW) 06:39:40 437.375
M-CUBED/EXP-1 PRIME 07 May 06:37:12 06:42:00 83° 250° (WSW) 06:46:37 437.505
PRISM 07 May 06:45:14 06:49:19 65° 74° (ENE) 06:53:24 437.425
BEESAT 3 07 May 06:46:04 06:48:01 13° 31° (NNE) 06:50:03 437.485
JAS-2 07 May 06:49:00 06:53:13 20° 302° (WNW) 06:57:02 435.910
O/OREOS (USA 219) 07 May 06:49:20 06:53:23 33° 254° (WSW) 06:57:22 437.305
CUBESAT XI-V 07 May 06:55:54 07:00:26 60° 260° (W) 07:05:00 437.345
BEESAT 2 07 May 07:04:09 07:06:34 15° 33° (NNE) 07:09:04 435.950
AUBIESAT-1 07 May 07:07:27 07:12:03 48° 256° (WSW) 07:16:28 437.475
STRAND 1 07 May 07:20:34 07:25:39 74° 258° (WSW) 07:30:46 437.568
CUTE-I 07 May 07:42:44 07:48:06 87° 286° (WNW) 07:53:27 437.470
AIST 2 07 May 07:47:16 07:49:39 15° 32° (NNE) 07:52:05 435.215
PCSat 07 May 07:47:29 07:52:09 28° 317° (NW) 07:56:46 145.827
